Location: *
(43.2048°N, 0.1612°E)
Time: 18:16:49
(UTC+00:00)

ADEOS II - Pass Details

Date: 30 September 2023
Orbit: 798 x 798 km, 98.7° (Epoch: 05 December)

Event Time Altitude Azimuth Distance (km) Brightness Sun altitude
Rises 03:52:40 0° 356° (N) 3,316 5.5 -22.8°
Reaches altitude 10° 03:56:04 10° 333° (NNW) 2,381 4.5 -22.2°
Enters shadow 03:57:15 13° 321° (NW) 2,183 4.1 -22.0°
